This is the latest recevied weather packets stored in our database for station/object W0AVQ. If no packets are shown the sender has not sent any weather packets the latest 10 day(s).
| Time | Temp. | Humidity | Pressure | Rain* | Wind** | Luminosity | Snow |
|---|---|---|---|---|---|---|---|
| 1777404698 | 21.67° C | 81% | 1015.8 hPa | 0 mm | - | 36 W/m² | - |
| 1777404394 | 21.67° C | 81% | 1016.1 hPa | 0 mm | - | 49 W/m² | - |
| 1777404091 | 21.67° C | 81% | 1015.6 hPa | 0 mm | - | 74 W/m² | - |
| 1777403787 | 21.67° C | 80% | 1015.5 hPa | 0 mm | - | 96 W/m² | - |
| 1777403486 | 21.67° C | 80% | 1015.5 hPa | 0 mm | - | 98 W/m² | - |
| 1777403180 | 21.67° C | 80% | 1015.6 hPa | 0 mm | - | 95 W/m² | - |
| 1777402876 | 21.67° C | 79% | 1015.6 hPa | 0 mm | - | 104 W/m² | - |
| 1777402572 | 22.22° C | 80% | 1015.9 hPa | 0 mm | - | 113 W/m² | - |
| 1777402270 | 22.22° C | 80% | 1016.2 hPa | 0 mm | - | 118 W/m² | - |
| 1777401965 | 22.22° C | 78% | 1016.1 hPa | 0 mm | - | 124 W/m² | - |
| 1777401663 | 22.22° C | 78% | 1016.4 hPa | 0 mm | - | 120 W/m² | - |
| 1777401361 | 22.22° C | 77% | 1016.3 hPa | 0 mm | - | 124 W/m² | - |
| 1777401056 | 22.78° C | 78% | 1016.5 hPa | 0 mm | - | 126 W/m² | - |
| 1777400751 | 22.22° C | 78% | 1017.1 hPa | 0 mm | - | 119 W/m² | - |
| 1777400449 | 22.22° C | 78% | 1017.1 hPa | 0 mm | - | 111 W/m² | - |
| 1777400144 | 22.22° C | 78% | 1017.5 hPa | 0 mm | - | 105 W/m² | - |
| 1777399842 | 22.78° C | 76% | 1017.4 hPa | 0 mm | - | 110 W/m² | - |
| 1777399538 | 23.89° C | 74% | 1017.2 hPa | 0 mm | - | 122 W/m² | - |
| 1777399236 | 23.33° C | 74% | 1017.3 hPa | 0 mm | - | 136 W/m² | - |
| 1777398934 | 23.33° C | 74% | 1017.3 hPa | 0 mm | - | 163 W/m² | - |
| 1777398630 | 22.78° C | 74% | 1017.3 hPa | 0 mm | - | 203 W/m² | - |
| 1777398327 | 23.89° C | 71% | 1017.4 hPa | 0 mm | - | 230 W/m² | - |
| 1777398024 | 23.33° C | 72% | 1017.5 hPa | 0 mm | - | 250 W/m² | - |
| 1777397721 | 23.33° C | 72% | 1017.5 hPa | 0 mm | - | 276 W/m² | - |
| 1777397416 | 23.89° C | 72% | 1017.3 hPa | 0 mm | - | 287 W/m² | - |
* Rain latest hour (hover to see other rain measurements)
** Current wind speed in m/s (hover to see current wind gust speed)